Weather History for Arlington, WA

Change the Weather History Date:

Sunday, May 5, 2013

  Actual Average Record
Temperature  
Mean Temperature 59 °F -  
Max Temperature 77 °F 56 °F 77 °F (2013)
Min Temperature 41 °F 35 °F 31 °F (1978)
Degree Days  
Heating Degree Days 6    
Growing Degree Days 9 (Base 50)    
Moisture  
Dew Point 47 °F    
Average Humidity 64    
Maximum Humidity 100    
Minimum Humidity 41    
Precipitation  
Precipitation 0.00 in - - ()
Sea Level Pressure  
Sea Level Pressure 29.92 in    
Wind  
Wind Speed 4 mph (NW)    
Max Wind Speed 15 mph    
Max Gust Speed 17 mph    
Visibility 10 miles    
Events      
Averages and records for this station are not official NWS values.
T = Trace of Precipitation, MM = Missing Value Source: NWS Daily Summary

Daily Weather History Graph

Daily Weather History Graph

Search for Another Location

Airport:

Trip Planner

Search our weather history database for the weather conditions in past years. The results will help you decide how hot, cold, wet, or windy it might be!

Date:

Astronomy

May. 05, 2013 Rise Set
Actual Time 5:43 AM PDT 8:28 PM PDT
Civil Twilight 5:07 AM PDT 9:04 PM PDT
Nautical Twilight 4:22 AM PDT 9:49 PM PDT
Astronomical Twilight 3:28 AM PDT 10:44 PM PDT
Moon 3:35 AM PDT (5/5) 4:16 PM PDT (5/5)
Length of Visible Light 15h 56m
Length of Day
14h 45m
Waning Crescent, 17% of the Moon is Illuminated
May 5
Waning Crescent
May 9
New
May 17
First Quarter
May 24
Full
May 31
Last Quarter

Hourly Weather History & Observations

Time (PDT) Temp. Windchill Dew Point Humidity Pressure Visibility Wind Dir Wind Speed Gust Speed Precip Events Conditions
12:15 AM 51.8 °F - 42.8 °F 71% 30.03 in 10.0 mi North 3.5 mph - N/A   Clear
12:35 AM 48.2 °F - 42.8 °F 82% 30.03 in 10.0 mi North - - N/A   Clear
12:55 AM 48.2 °F - 42.8 °F 82% 30.03 in 10.0 mi Calm Calm - N/A   Clear
1:15 AM 48.2 °F - 42.8 °F 82% 30.03 in 10.0 mi NW 3.5 mph - N/A   Clear
1:35 AM 46.4 °F - 42.8 °F 87% 30.02 in 10.0 mi Calm Calm - N/A   Clear
1:55 AM 46.4 °F - 42.8 °F 87% 30.02 in 10.0 mi Calm Calm - N/A   Clear
2:15 AM 48.2 °F - 42.8 °F 82% 30.02 in 10.0 mi Calm Calm - N/A   Clear
2:35 AM 46.4 °F - 42.8 °F 87% 30.02 in 10.0 mi Calm Calm - N/A   Clear
2:55 AM 46.4 °F - 42.8 °F 87% 30.02 in 10.0 mi Calm Calm - N/A   Clear
3:15 AM 44.6 °F - 42.8 °F 93% 30.02 in 10.0 mi Calm Calm - N/A   Clear
3:35 AM 46.4 °F - 42.8 °F 87% 30.02 in 10.0 mi Calm Calm - N/A   Clear
3:55 AM 44.6 °F - 42.8 °F 93% 30.02 in 10.0 mi Calm Calm - N/A   Clear
4:15 AM 42.8 °F 41.1 °F 42.8 °F 100% 30.01 in 10.0 mi NW 3.5 mph - N/A   Clear
4:35 AM 42.8 °F 41.1 °F 39.2 °F 87% 30.01 in 10.0 mi NNW 3.5 mph - N/A   Clear
4:55 AM 41.0 °F 39.0 °F 37.4 °F 87% 30.01 in 10.0 mi NNW 3.5 mph - N/A   Clear
5:15 AM 42.8 °F 39.3 °F 41.0 °F 93% 30.00 in 10.0 mi WNW 5.8 mph - N/A   Clear
5:35 AM 42.8 °F - 41.0 °F 93% 30.00 in 10.0 mi Calm Calm - N/A   Clear
5:55 AM 42.8 °F - 39.2 °F 87% 30.00 in 10.0 mi Calm Calm - N/A   Clear
6:15 AM 42.8 °F - 41.0 °F 93% 30.00 in 10.0 mi Calm Calm - N/A   Clear
6:35 AM 42.8 °F 41.1 °F 41.0 °F 93% 30.00 in 10.0 mi North 3.5 mph - N/A   Clear
6:55 AM 44.6 °F - 42.8 °F 93% 30.00 in 10.0 mi Calm Calm - N/A   Clear
7:15 AM 44.6 °F 41.4 °F 42.8 °F 93% 30.00 in 10.0 mi North 5.8 mph - N/A   Clear
7:35 AM 48.2 °F - 44.6 °F 87% 30.00 in 10.0 mi Calm Calm - N/A   Clear
7:55 AM 51.8 °F - 46.4 °F 82% 30.00 in 10.0 mi Calm Calm - N/A   Clear
8:15 AM 55.4 °F - 46.4 °F 72% 29.99 in 10.0 mi NNW 4.6 mph - N/A   Clear
8:35 AM 57.2 °F - 46.4 °F 67% 29.99 in 10.0 mi NW 4.6 mph - N/A   Clear
8:55 AM 59.0 °F - 42.8 °F 55% 29.98 in 10.0 mi NNW 3.5 mph - N/A   Clear
9:15 AM 60.8 °F - 46.4 °F 59% 29.98 in 10.0 mi NW 5.8 mph - N/A   Clear
9:35 AM 62.6 °F - 48.2 °F 59% 29.97 in 10.0 mi NNW 5.8 mph - N/A   Clear
9:55 AM 62.6 °F - 46.4 °F 55% 29.97 in 10.0 mi NNW 4.6 mph - N/A   Clear
10:15 AM 64.4 °F - 46.4 °F 52% 29.96 in 10.0 mi NNW 4.6 mph - N/A   Clear
10:35 AM 66.2 °F - 48.2 °F 52% 29.95 in 10.0 mi NW 5.8 mph - N/A   Clear
11:15 AM 69.8 °F - 48.2 °F 46% 29.94 in 10.0 mi WNW 4.6 mph - N/A   Clear
11:35 AM 71.6 °F - 46.4 °F 41% 29.93 in 10.0 mi WNW 4.6 mph - N/A   Clear
11:55 AM 73.4 °F - 48.2 °F 41% 29.92 in 10.0 mi NW 5.8 mph - N/A   Clear
12:15 PM 73.4 °F - 48.2 °F 41% 29.92 in 10.0 mi WNW 8.1 mph - N/A   Clear
12:35 PM 73.4 °F - 48.2 °F 41% 29.91 in 10.0 mi NW 8.1 mph - N/A   Clear
12:55 PM 75.2 °F - 53.6 °F 47% 29.90 in 10.0 mi WNW 11.5 mph - N/A   Clear
1:15 PM 73.4 °F - 51.8 °F 47% 29.89 in 10.0 mi WNW 11.5 mph - N/A   Clear
1:35 PM 73.4 °F - 53.6 °F 50% 29.89 in 10.0 mi WNW 10.4 mph - N/A   Clear
1:55 PM 75.2 °F - 51.8 °F 44% 29.89 in 10.0 mi West 12.7 mph - N/A   Clear
2:15 PM 75.2 °F - 53.6 °F 47% 29.88 in 10.0 mi NW 11.5 mph - N/A   Clear
2:35 PM 75.2 °F - 50.0 °F 41% 29.88 in 10.0 mi WNW 12.7 mph 16.1 mph N/A   Clear
2:55 PM 75.2 °F - 51.8 °F 44% 29.87 in 10.0 mi NW 10.4 mph - N/A   Clear
3:15 PM 75.2 °F - 51.8 °F 44% 29.86 in 10.0 mi WNW 15.0 mph - N/A   Clear
3:35 PM 75.2 °F - 51.8 °F 44% 29.85 in 10.0 mi NW 11.5 mph - N/A   Clear
3:55 PM 75.2 °F - 51.8 °F 44% 29.85 in 10.0 mi WNW 11.5 mph 17.3 mph N/A   Clear
4:15 PM 75.2 °F - 51.8 °F 44% 29.84 in 10.0 mi WNW 15.0 mph - N/A   Clear
4:35 PM 75.2 °F - 53.6 °F 47% 29.83 in 10.0 mi NW 11.5 mph - N/A   Clear
4:55 PM 75.2 °F - 51.8 °F 44% 29.83 in 10.0 mi WNW 10.4 mph - N/A   Clear
5:15 PM 77.0 °F - 53.6 °F 44% 29.82 in 10.0 mi NW 10.4 mph - N/A   Clear
5:35 PM 75.2 °F - 53.6 °F 47% 29.81 in 10.0 mi NW 10.4 mph - N/A   Clear
5:55 PM 75.2 °F - 53.6 °F 47% 29.81 in 10.0 mi NW 10.4 mph - N/A   Clear
6:15 PM 75.2 °F - 53.6 °F 47% 29.80 in 10.0 mi WNW 10.4 mph - N/A   Clear
6:35 PM 75.2 °F - 51.8 °F 44% 29.80 in 10.0 mi NW 10.4 mph - N/A   Clear
6:55 PM 75.2 °F - 51.8 °F 44% 29.80 in 10.0 mi NW 9.2 mph - N/A   Clear
7:35 PM 71.6 °F - 51.8 °F 50% 29.80 in 10.0 mi NW 10.4 mph - N/A   Clear
7:55 PM 71.6 °F - 48.2 °F 43% 29.80 in 10.0 mi NW 6.9 mph - N/A   Clear
8:15 PM 69.8 °F - 48.2 °F 46% 29.80 in 10.0 mi NW 9.2 mph - N/A   Clear
8:35 PM 68.0 °F - 46.4 °F 46% 29.80 in 10.0 mi North 6.9 mph - N/A   Clear
8:55 PM 64.4 °F - 46.4 °F 52% 29.80 in 10.0 mi North 5.8 mph - N/A   Clear
9:15 PM 64.4 °F - 48.2 °F 56% 29.81 in 10.0 mi Calm Calm - N/A   Clear
9:35 PM 60.8 °F - 48.2 °F 63% 29.82 in 10.0 mi SSE 3.5 mph - N/A   Clear
9:55 PM 62.6 °F - 48.2 °F 59% 29.82 in 10.0 mi Calm Calm - N/A   Clear
10:15 PM 59.0 °F - 48.2 °F 67% 29.83 in 10.0 mi Calm Calm - N/A   Clear
10:35 PM 59.0 °F - 46.4 °F 63% 29.83 in 10.0 mi North 3.5 mph - N/A   Clear
10:55 PM 59.0 °F - 46.4 °F 63% 29.83 in 10.0 mi Calm Calm - N/A   Clear
11:15 PM 55.4 °F - 46.4 °F 72% 29.84 in 10.0 mi Calm Calm - N/A   Clear
11:35 PM 57.2 °F - 46.4 °F 67% 29.84 in 10.0 mi Calm Calm - N/A   Clear
11:55 PM 55.4 °F - 48.2 °F 77% 29.84 in 10.0 mi Calm Calm - N/A   Clear